Weather History for Wilmington, NC

Change the Weather History Date:

Saturday, March 16, 2013

  Actual Average Record
Temperature  
Mean Temperature 67 °F 55 °F  
Max Temperature 79 °F 66 °F 85 °F (1977)
Min Temperature 55 °F 44 °F 22 °F (1890)
Degree Days  
Heating Degree Days 0 10  
Month to date heating degree days 249 195  
Since 1 July heating degree days 2056 2124  
Cooling Degree Days 2 1  
Month to date cooling degree days 2 1  
Year to date cooling degree days 14 6  
Growing Degree Days 15 (Base 50)    
Moisture  
Dew Point 45 °F    
Average Humidity 47    
Maximum Humidity 64    
Minimum Humidity 30    
Precipitation  
Precipitation 0.00 in 0.14 in 1.45 in (2009)
Month to date precipitation 0.56 2.25  
Year to date precipitation 7.83 9.63  
Snow  
Snow 0.00 in 0.00 in - ()
Month to date snowfall 0.0 0.1  
Since 1 July snowfall T 1.6  
Snow Depth 0.00 in    
Sea Level Pressure  
Sea Level Pressure 29.87 in    
Wind  
Wind Speed 14 mph (SW)    
Max Wind Speed 23 mph    
Max Gust Speed 31 mph    
Visibility 10 miles    
Events      
T = Trace of Precipitation, MM = Missing Value Source: NWS Daily Summary

Daily Weather History Graph

Daily Weather History Graph

Search for Another Location

Airport:

Trip Planner

Search our weather history database for the weather conditions in past years. The results will help you decide how hot, cold, wet, or windy it might be!

Date:

Astronomy

Mar. 16, 2013 Rise Set
Actual Time 7:20 AM EDT 7:20 PM EDT
Civil Twilight 6:55 AM EDT 7:45 PM EDT
Nautical Twilight 6:26 AM EDT 8:14 PM EDT
Astronomical Twilight 5:57 AM EDT 8:43 PM EDT
Moon 10:01 AM EDT (3/16) No Moon Set
Length of Visible Light 12h 49m
Length of Day
11h 59m
Waxing Crescent, 23% of the Moon is Illuminated
Mar 16
Waxing Crescent
Mar 19
First Quarter
Mar 27
Full
Apr 3
Last Quarter
Apr 10
New

Hourly Weather History & Observations

Time (EDT) Temp. Dew Point Humidity Pressure Visibility Wind Dir Wind Speed Gust Speed Precip Events Conditions
12:53 AM 55.0 °F 42.1 °F 62% 29.98 in 10.0 mi SSW 10.4 mph - N/A   Clear
1:53 AM 57.0 °F 43.0 °F 59% 29.96 in 10.0 mi SW 13.8 mph 19.6 mph N/A   Clear
2:53 AM 57.0 °F 45.0 °F 64% 29.93 in 10.0 mi SSW 13.8 mph - N/A   Clear
3:53 AM 57.9 °F 44.1 °F 60% 29.92 in 10.0 mi SW 13.8 mph 20.7 mph N/A   Clear
4:53 AM 57.9 °F 44.1 °F 60% 29.91 in 10.0 mi SW 12.7 mph - N/A   Clear
5:53 AM 57.0 °F 44.1 °F 62% 29.91 in 10.0 mi SW 10.4 mph - N/A   Clear
6:53 AM 57.0 °F 43.0 °F 59% 29.92 in 10.0 mi SW 10.4 mph - N/A   Clear
7:53 AM 57.9 °F 42.1 °F 56% 29.91 in 10.0 mi SW 10.4 mph - N/A   Clear
8:53 AM 60.1 °F 42.1 °F 51% 29.92 in 10.0 mi WSW 11.5 mph - N/A   Clear
9:53 AM 63.0 °F 43.0 °F 48% 29.91 in 10.0 mi WSW 13.8 mph - N/A   Mostly Cloudy
10:53 AM 66.9 °F 44.1 °F 44% 29.89 in 10.0 mi WSW 17.3 mph 25.3 mph N/A   Clear
11:53 AM 73.0 °F 44.1 °F 35% 29.87 in 10.0 mi WSW 17.3 mph 21.9 mph N/A   Clear
12:53 PM 77.0 °F 45.0 °F 32% 29.85 in 10.0 mi SW 20.7 mph 24.2 mph N/A   Clear
1:53 PM 79.0 °F 45.0 °F 30% 29.82 in 10.0 mi WSW 16.1 mph 24.2 mph N/A   Clear
2:53 PM 78.1 °F 46.9 °F 33% 29.78 in 10.0 mi SSW 16.1 mph 25.3 mph N/A   Clear
3:53 PM 73.9 °F 48.0 °F 40% 29.78 in 10.0 mi SSW 15.0 mph 27.6 mph N/A   Clear
4:53 PM 73.0 °F 48.0 °F 41% 29.77 in 10.0 mi SSW 17.3 mph - N/A   Clear
5:53 PM 70.0 °F 48.0 °F 46% 29.77 in 10.0 mi SSW 15.0 mph 25.3 mph N/A   Clear
6:53 PM 66.0 °F 46.9 °F 50% 29.78 in 10.0 mi SSW 15.0 mph 31.1 mph N/A   Clear
7:53 PM 64.0 °F 46.9 °F 54% 29.79 in 10.0 mi SSW 12.7 mph 21.9 mph N/A   Clear
8:53 PM 63.0 °F 48.0 °F 58% 29.82 in 10.0 mi SW 11.5 mph - N/A   Clear
9:53 PM 62.1 °F 48.0 °F 60% 29.85 in 10.0 mi SW 9.2 mph - N/A   Clear
10:53 PM 62.1 °F 48.0 °F 60% 29.88 in 10.0 mi SW 9.2 mph - N/A   Clear
11:53 PM 61.0 °F 48.0 °F 62% 29.88 in 10.0 mi SW 10.4 mph - N/A   Clear